Hourly Data Report for September 01, 2019

All times are specified in Local Standard Time (LST). Add 1 hour to adjust for Daylight Saving Time where and when it is observed.

EUREKA CLIMATE
NUNAVUT
Current Station Operator: ECCC - MSC

79°59'21.000" N
85°56'02.000" W
10.00 m
2401199
71613
NEK

Download Data

Hourly Data (September 2019)
Hourly Data Report for September 1, 2019
TIME Temp Definition
°C
Dew Point Definition
°C
Rel Hum Definition
%
Wind Dir Definition
10's deg

Wind Spd Definition
km/h
Visibility Definition
km
Stn Press Definition
kPa
Hmdx Definition


Wind Chill Definition


Weather Definition


00:00 0.0 -0.8 95 28 28   101.49   -6 LegendNANA
01:00 -0.4 -1.1 95 28 32   101.51   -7 LegendNANA
02:00 -0.3 -1.1 94 28 32   101.50   -7 LegendNANA
03:00 0.1 -0.7 94 28 27   101.47     LegendNANA
04:00 0.0 -0.8 95 28 31   101.48   -7 LegendNANA
05:00 0.0 -0.8 95 28 27   101.49   -6 LegendNANA
06:00 0.1 -0.8 94 28 30   101.48     LegendNANA
07:00 0.4 -0.4 94 28 28   101.48     LegendNANA
08:00 0.5 -0.5 93 28 28   101.46     LegendNANA
09:00 1.0 -0.2 92 28 25   101.44     LegendNANA
10:00 0.9 -0.4 91 28 29   101.42     LegendNANA
11:00 1.2 -0.3 90 28 25   101.41     LegendNANA
12:00 1.3 -0.1 90 28 28   101.40     LegendNANA
13:00 1.7 0.0 88 27 23   101.37     LegendNANA
14:00 1.4 0.0 90 27 25   101.36     LegendNANA
15:00 1.3 -0.3 89 27 26   101.36     LegendNANA
16:00 2.1 0.4 88 27 26   101.33     LegendNANA
17:00 0.9 -0.3 92 28 32   101.33     LegendNANA
18:00 1.2 -0.2 90 28 25   101.30     LegendNANA
19:00 1.1 -0.4 90 29 34   101.28     LegendNANA
20:00 1.0 -0.4 90 28 34   101.27     LegendNANA
21:00 1.0 -0.5 90 29 37   101.24     LegendNANA
22:00 0.9 -0.5 90 28 33   101.21     LegendNANA
23:00 0.8 -0.5 91 29 31   101.22     LegendNANA

Notes on Data Quality.

Legend

  • E = Estimated
  • M = Missing
  • NA = Not Available
Date modified: